Weather in Kuban Ozero

Russia / Samara Oblast     53°55′28″N   49°58′31″E
temp.,
°C
wind,
m/s
gust,
m/s
humid.,
%
clouds,
%
prec.,
mm/h
press.,
hPa
HPBL,
m
13 june, sun
sun1301:00+15s349363 0.0 101264
04:00+15sse369420 0.0 1013107
07:00+18sse46831 0.0 1013207
10:00+23s46665 0.0 1013733
13:00+25s675454 1.2 10131629
16:00+25ssw475812 1.2 10131250
19:00+22ssw4776100 0.3 1013175
22:00+18ssw2277100 2.2 101416
14 june, mon
mon1401:00+16sse348860 0.0 101546
04:00+16s228875 0.0 101616
07:00+19s1278100 0.0 1016128
10:00+23ssw1166100 0.0 1017364
13:00+26ese2256100 0.0 1016992
16:00+27ese335145 0.0 10161706
19:00+24ese347898 0.6 101597
22:00+20ene228035 0.9 101512
15 june, tue
tue1501:00+19ene228178 0.0 101422
04:00+17e3485100 0.0 101363
07:00+19s378996 0.1 1014243
10:00+23s466885 0.1 1014626
13:00+21sse238195 0.0 1014149
16:00+24sse566498 0.0 1013485
19:00+21se3680100 0.0 1013121
22:00+20ese346974 0.0 101255
16 june, wed
wed1601:00+20e228197 0.0 101137
04:00+19ene4677100 0.0 101088
07:00+21e497290 0.0 1009237
10:00+24se710566 0.0 1007629
13:00+27sse67515 0.0 10071098
16:00+28sw565371 0.0 10061302
19:00+25wsw36685 0.0 1006256
22:00+21sw51179100 0.0 1006243
17 june, thu
thu1701:00+19w499117 0.0 1007216
04:00+17nw7119390 0.1 1009471
07:00+17nw7108698 0.0 1011684
10:00+19nnw810620 0.1 10131172
13:00+20nnw911490 0.0 10151736
16:00+21n911495 0.0 10162089
19:00+18n612610 0.0 10181410
22:00+14nnw49690 0.0 1020166